sat.trackr.live / text

‹ back to catalog

STARLINK-5822

NORAD 57064 · 2023-088S

PAYLOAD ACTIVE UNKNOWN

§ Identity

Operator
Country
US
Launch date
2023-06-22
Launch site
AFWTR
Launch vehicle
Mass (kg)
RCS (m²)

Purposes: comms

External: N2YO · Heavens-Above · Gunter

§ Orbital elements

Epoch: 2026-09-20T22:20:12.266592Z

Period
94.27 min
Inclination
43.0006°
Eccentricity
0.0002051
Mean motion
15.27576540 rev/d
Perigee alt
481.7 km
Apogee alt
484.5 km
Semi-major
6,861.2 km
B*
1.0718e-5
RAAN
87.8937°
Arg perigee
233.2915°
Mean anomaly
126.7748°
Rev number
17,921

§ Raw data

STARLINK-58221 57064U 23088S   26263.93069753  .00000033  00000+0  10718-4 0  99902 57064  43.0006  87.8937 0002051 233.2915 126.7748 15.27576540179219

JSON: /api/v1/satellites/57064 · /tle

For live sub-satellite position, see the globe view (requires WebGL).

§ Visibility from observer

Set your observer location to see the next 7 days of passes ≥ 10°. The values pass through the URL so the page stays shareable.

No JS? Fill the form by hand. The geolocation button needs JavaScript.